Change the Weather History Date:

Thursday, October 4, 2012

  Actual Average Record
Temperature  
Mean Temperature 56 °F -  
Max Temperature 74 °F - 83 °F (2014)
Min Temperature 38 °F - 37 °F (1999)
Degree Days  
Heating Degree Days 9    
Month to date heating degree days 23  
Since 1 July heating degree days 181  
Cooling Degree Days 0    
Month to date cooling degree days 6  
Year to date cooling degree days 245  
Growing Degree Days 6 (Base 50)    
Moisture  
Dew Point 29 °F    
Average Humidity 42    
Maximum Humidity 70    
Minimum Humidity 14    
Precipitation  
Precipitation 0.00 in - 0.55 in (2011)
Month to date precipitation 0.00  
Year to date precipitation 31.00  
Sea Level Pressure  
Sea Level Pressure 30.18 in    
Wind  
Wind Speed 5 mph (North)    
Max Wind Speed 15 mph    
Max Gust Speed 22 mph    
Visibility 10 miles    
Events      
T = Trace of Precipitation, MM = Missing Value Source: NWS Daily Summary

Daily Weather History Graph

Daily Weather History Graph

Search for Another Location

Airport or City:

Trip Planner

Search our weather history database for the weather conditions in past years. The results will help you decide how hot, cold, wet, or windy it might be!

Date:

Astronomy

Oct. 04, 2012 Rise Set
Actual Time 7:14 AM PDT 6:44 PM PDT
Civil Twilight 6:44 AM PDT 7:14 PM PDT
Nautical Twilight 6:10 AM PDT 7:48 PM PDT
Astronomical Twilight 5:35 AM PDT 8:23 PM PDT
Moon 9:10 PM PDT (10/4) 11:50 AM PDT (10/4)
Length of Visible Light 12h 29m
Length of Day
11h 30m
Waning Gibbous, 81% of the Moon is Illuminated
Oct 4
Waning Gibbous
Oct 8
Last Quarter
Oct 15
New
Oct 21
First Quarter
Oct 29
Full

Hourly Weather History & Observations

Time (PDT) Temp. Windchill Dew Point Humidity Pressure Visibility Wind Dir Wind Speed Gust Speed Precip Events Conditions
12:53 AM 52.0 °F - 30.0 °F 43% 30.18 in 10.0 mi NNW 5.8 mph - N/A   Clear
1:53 AM 48.9 °F - 30.0 °F 48% 30.18 in 10.0 mi NNW 4.6 mph - N/A   Clear
2:53 AM 46.0 °F 44.8 °F 30.9 °F 56% 30.18 in 10.0 mi West 3.5 mph - N/A   Clear
3:53 AM 42.1 °F - 30.9 °F 65% 30.17 in 10.0 mi Calm Calm - N/A   Clear
4:53 AM 45.0 °F - 30.9 °F 58% 30.18 in 10.0 mi Calm Calm - N/A   Clear
5:53 AM 41.0 °F - 30.0 °F 65% 30.17 in 10.0 mi Calm Calm - N/A   Clear
6:53 AM 39.9 °F - 30.9 °F 70% 30.18 in 10.0 mi Calm Calm - N/A   Clear
7:53 AM 44.1 °F - 32.0 °F 63% 30.19 in 10.0 mi Calm Calm - N/A   Clear
8:53 AM 55.0 °F - 34.0 °F 45% 30.19 in 10.0 mi North 5.8 mph - N/A   Clear
9:53 AM 60.1 °F - 33.1 °F 36% 30.20 in 10.0 mi North 10.4 mph - N/A   Clear
10:53 AM 64.0 °F - 32.0 °F 30% 30.19 in 10.0 mi North 8.1 mph - N/A   Clear
11:53 AM 68.0 °F - 32.0 °F 26% 30.18 in 10.0 mi North 6.9 mph - N/A   Clear
12:53 PM 71.1 °F - 28.9 °F 21% 30.18 in 10.0 mi East 4.6 mph - N/A   Clear
1:53 PM 73.0 °F - 24.1 °F 16% 30.16 in 10.0 mi Variable 6.9 mph - N/A   Clear
2:53 PM 73.9 °F - 23.0 °F 15% 30.16 in 10.0 mi NE 12.7 mph 19.6 mph N/A   Clear
3:53 PM 72.0 °F - 21.0 °F 15% 30.16 in 10.0 mi East 13.8 mph - N/A   Clear
4:53 PM 71.1 °F - 19.9 °F 14% 30.16 in 10.0 mi East 10.4 mph - N/A   Clear
5:53 PM 68.0 °F - 25.0 °F 20% 30.17 in 10.0 mi East 6.9 mph - N/A   Clear
6:53 PM 62.1 °F - 26.1 °F 25% 30.17 in 10.0 mi NE 5.8 mph - N/A   Clear
7:53 PM 55.0 °F - 28.9 °F 37% 30.18 in 10.0 mi North 3.5 mph - N/A   Clear
8:53 PM 50.0 °F - 30.9 °F 48% 30.19 in 10.0 mi NNW 3.5 mph - N/A   Clear
9:53 PM 55.0 °F - 28.0 °F 35% 30.19 in 10.0 mi North 5.8 mph - N/A   Clear
10:53 PM 46.0 °F 44.8 °F 30.9 °F 56% 30.20 in 10.0 mi WNW 3.5 mph - N/A   Clear
11:53 PM 44.1 °F 42.5 °F 30.0 °F 58% 30.21 in 10.0 mi West 3.5 mph - N/A   Clear